Home > Weather > Thônex > Past weeks

Flag for Switzerland Past Weather in Thônex, Geneva, Switzerland — Yesterday and Last 2 Weeks

Now
73 °F

Thundershowers. Broken clouds.


Feels Like: 76 °F
Forecast: 63 / 77 °F
Wind: 3 mph from North

Location: Geneva Cointrin Airport

Current Time: Jul 23, 2016 at 6:57:00 PM

Latest Report: Jul 23, 2016 at 6:20 PM


Visibility: N/A

Pressure: 30.07 "Hg

Humidity: 65%

Dew Point: 61 °F

Location of ThônexLocation

Past Weather in Thônex — Graph

°F

Thônex Temperature Yesterday

Maximum temperature yesterday: 75 °F (at 10:50 AM)
Minimum temperature yesterday: 64 °F (at 11:20 PM)
Average temperature yesterday: 69 °F

High & Low Weather Summary for the Past Weeks

 TemperatureHumidityPressure
High91 °F (Jul 10, 4:20 PM)100% (Jul 12, 2:20 AM)30.30 "Hg (Jul 12, 2:20 AM)
Low46 °F (Jul 15, 2:50 AM)22% (Jul 19, 6:20 PM)29.92 "Hg (Jul 11, 6:20 PM)
Average70 °F66%30.11 "Hg
* Reported Jul 8 5:20 PM — Jul 23 5:20 PM, Thônex, Weather by CustomWeather, © 2016

Note: Actual official high and low records may vary slightly from our data, if they occured in-between our weather recording intervals... More about our weather records

Advertising

Thônex Weather History for the Previous 24 Hours

Scroll right to see more
 ConditionsComfort  
Time TempWeatherWind HumidityBarometerVisibility
5:20 PM
Sat, Jul 23
75 °FThundershowers. Broken clouds.3 mph65%30.07 "HgN/A
4:50 PM75 °FPartly sunny.6 mph61%30.07 "HgN/A
4:20 PM75 °FThunderstorms. Partly sunny.8 mph61%30.07 "HgN/A
3:50 PM77 °FThunderstorms. Partly sunny.9 mph57%30.07 "HgN/A
3:20 PM77 °FScattered clouds.8 mph57%30.07 "HgN/A
2:50 PM77 °FThundershowers. Scattered clouds.9 mph57%30.07 "HgN/A
2:20 PM77 °FScattered clouds.7 mph61%30.07 "HgN/A
1:50 PM77 °FScattered clouds.8 mph57%30.07 "HgN/A
1:20 PM77 °FScattered clouds.6 mph54%30.07 "HgN/A
12:50 PM75 °FScattered clouds.8 mph61%30.07 "HgN/A
12:20 PM75 °FPassing clouds.5 mph65%30.07 "HgN/A
11:50 AM73 °FPassing clouds.3 mph65%30.07 "HgN/A
11:20 AM73 °FScattered clouds.5 mph65%30.07 "HgN/A
10:50 AM72 °FScattered clouds.2 mph73%30.07 "HgN/A
10:20 AM72 °FScattered clouds.2 mph78%30.07 "HgN/A
9:50 AM68 °FPartly sunny.2 mph88%30.07 "HgN/A
9:20 AM68 °FScattered clouds.1 mph83%30.07 "HgN/A
8:50 AM68 °FPartly sunny.2 mph88%30.07 "HgN/A
8:20 AM66 °FBroken clouds.1 mph94%30.07 "HgN/A
7:50 AM64 °FBroken clouds.2 mph100%30.07 "HgN/A
7:20 AM64 °FBroken clouds.1 mph94%30.07 "HgN/A
6:50 AM63 °FPassing clouds.1 mph100%30.07 "HgN/A
6:20 AM63 °FPassing clouds.2 mph100%30.04 "HgN/A
5:50 AM63 °FLight rain. Passing clouds.2 mph100%30.04 "HgN/A
5:20 AM64 °FPassing clouds.1 mph94%30.04 "HgN/A
4:50 AM64 °FPartly cloudy.2 mph94%30.04 "HgN/A
4:20 AM64 °FPassing clouds.1 mph94%30.04 "HgN/A
3:50 AM64 °FPassing clouds.2 mph94%30.07 "HgN/A
2:50 AM64 °FPassing clouds.1 mph94%30.07 "HgN/A
2:20 AM64 °FPassing clouds.1 mph94%30.07 "HgN/A
1:50 AM63 °FPassing clouds.2 mph100%30.07 "HgN/A
1:20 AM63 °FPassing clouds.2 mph100%30.07 "HgN/A
12:50 AM64 °FPassing clouds.1 mph94%30.07 "HgN/A
12:20 AM64 °FPassing clouds.1 mph94%30.07 "HgN/A
11:50 PM
Fri, Jul 22
64 °FPassing clouds.2 mph94%30.04 "HgN/A
11:20 PM64 °FPassing clouds.2 mph100%30.04 "HgN/A
10:50 PM66 °FPartly cloudy.2 mph94%30.04 "HgN/A
10:20 PM66 °FPartly cloudy.2 mph94%30.07 "HgN/A
9:50 PM66 °FBroken clouds.3 mph94%30.04 "HgN/A
9:20 PM66 °FPartly sunny.3 mph94%30.04 "HgN/A
8:50 PM66 °FPartly sunny.5 mph94%30.04 "HgN/A
8:20 PM68 °FPartly sunny.3 mph94%30.04 "HgN/A
7:50 PM68 °FSprinkles. Partly sunny.5 mph94%30.04 "HgN/A
7:20 PM68 °FThundershowers. Partly sunny.3 mph94%30.04 "Hg5 mi
6:50 PM68 °FThunderstorms. Broken clouds.2 mph94%30.04 "HgN/A
6:20 PM72 °FScattered showers. Partly sunny.2 mph73%30.04 "HgN/A
Weather by CustomWeather, © 2016

See weather overviewHow to use our weather pages